IBE22IC LECO-LEMD

Flight info

Callsign IBE22IC
Flight time 0h 50m
Altitude 29000
Route FORNO DCT DESAT/N0444F300 N733 ZMR
Aircraft A320/M-SDE3FGHIRWY/LB1

Departure

Time 2026-05-06 17:19
Airport A Coruña Airport (LECO)

Arrival

Time 2026-05-06 18:10
Airport Adolfo Suárez Madrid–Barajas Airport (LEMD)
Time Latitude Longitude Altitude Speed Heading
2026-05-06 17:03 43.30205 -8.38050 341 ft 0 kts 301°
2026-05-06 17:09 43.30202 -8.38042 335 ft 2 kts 301°
2026-05-06 17:09 43.30193 -8.38022 337 ft 2 kts 295°
2026-05-06 17:10 43.30188 -8.38000 339 ft 2 kts 280°
2026-05-06 17:10 43.30189 -8.37977 340 ft 2 kts 218°
2026-05-06 17:10 43.30190 -8.37976 339 ft 0 kts 216°
2026-05-06 17:15 43.30187 -8.37979 340 ft 3 kts 216°
2026-05-06 17:15 43.30147 -8.38018 338 ft 8 kts 214°
2026-05-06 17:15 43.30074 -8.38069 338 ft 14 kts 196°
2026-05-06 17:16 43.29986 -8.38056 341 ft 12 kts 153°
2026-05-06 17:16 43.29922 -8.37984 349 ft 17 kts 157°
2026-05-06 17:16 43.29760 -8.38085 338 ft 29 kts 211°
2026-05-06 17:16 43.29583 -8.38230 335 ft 31 kts 211°
2026-05-06 17:17 43.29398 -8.38381 335 ft 32 kts 211°
2026-05-06 17:17 43.29269 -8.38508 337 ft 16 kts 240°
2026-05-06 17:17 43.29210 -8.38596 338 ft 11 kts 180°
2026-05-06 17:17 43.29198 -8.38543 340 ft 5 kts 46°
2026-05-06 17:18 43.29203 -8.38540 337 ft 0 kts 33°
2026-05-06 17:18 43.29256 -8.38495 338 ft 38 kts 30°
2026-05-06 17:19 43.29697 -8.38140 339 ft 105 kts 31°
2026-05-06 17:19 43.30454 -8.37502 517 ft 139 kts 32°
2026-05-06 17:19 43.31263 -8.36752 1169 ft 141 kts 37°
2026-05-06 17:19 43.31923 -8.35706 1757 ft 155 kts 55°
2026-05-06 17:20 43.32320 -8.34197 2054 ft 183 kts 78°
2026-05-06 17:20 43.32205 -8.32341 2335 ft 212 kts 106°
2026-05-06 17:20 43.31524 -8.30446 2951 ft 224 kts 115°
2026-05-06 17:20 43.30796 -8.28545 3837 ft 225 kts 116°
2026-05-06 17:21 43.30073 -8.26631 4682 ft 228 kts 115°
2026-05-06 17:21 43.29237 -8.24719 5236 ft 246 kts 127°
2026-05-06 17:21 43.28075 -8.22850 5659 ft 268 kts 130°
2026-05-06 17:21 43.26819 -8.20912 6458 ft 274 kts 131°
2026-05-06 17:22 43.25540 -8.18965 7347 ft 276 kts 132°
2026-05-06 17:22 43.24252 -8.17005 8239 ft 278 kts 133°
2026-05-06 17:22 43.22956 -8.15027 9166 ft 279 kts 133°
2026-05-06 17:22 43.21659 -8.13041 10053 ft 281 kts 133°
2026-05-06 17:23 43.20317 -8.10983 10473 ft 300 kts 132°
2026-05-06 17:23 43.18872 -8.08765 10711 ft 324 kts 132°
2026-05-06 17:23 43.17335 -8.06404 11115 ft 338 kts 133°
2026-05-06 17:23 43.15752 -8.03969 11772 ft 344 kts 133°
2026-05-06 17:24 43.14143 -8.01499 12448 ft 349 kts 132°
2026-05-06 17:24 43.12515 -7.99003 13179 ft 353 kts 133°
2026-05-06 17:24 43.10871 -7.96479 13849 ft 358 kts 133°
2026-05-06 17:24 43.09205 -7.93922 14460 ft 362 kts 133°
2026-05-06 17:25 43.07519 -7.91337 15072 ft 366 kts 133°
2026-05-06 17:25 43.05816 -7.88728 15690 ft 370 kts 133°
2026-05-06 17:25 43.04094 -7.86094 16303 ft 373 kts 133°
2026-05-06 17:25 43.02354 -7.83436 16909 ft 377 kts 133°
2026-05-06 17:26 43.00597 -7.80757 17504 ft 380 kts 133°
2026-05-06 17:26 42.98823 -7.78052 18093 ft 384 kts 134°
2026-05-06 17:26 42.97028 -7.75315 18614 ft 388 kts 134°
2026-05-06 17:26 42.95219 -7.72560 19109 ft 391 kts 133°
2026-05-06 17:27 42.93394 -7.69787 19607 ft 394 kts 134°
2026-05-06 17:27 42.91552 -7.66988 20083 ft 398 kts 134°
2026-05-06 17:27 42.89695 -7.64167 20567 ft 402 kts 133°
2026-05-06 17:27 42.87925 -7.61199 21048 ft 405 kts 130°
2026-05-06 17:28 42.86085 -7.58278 21507 ft 408 kts 134°
2026-05-06 17:28 42.84158 -7.55405 21910 ft 413 kts 134°
2026-05-06 17:28 42.82187 -7.52552 22418 ft 414 kts 135°
2026-05-06 17:28 42.80198 -7.49677 22889 ft 417 kts 135°
2026-05-06 17:29 42.78211 -7.46770 23334 ft 421 kts 134°
2026-05-06 17:29 42.76230 -7.43824 23754 ft 423 kts 134°
2026-05-06 17:29 42.74251 -7.40847 24145 ft 425 kts 134°
2026-05-06 17:29 42.72294 -7.37892 24539 ft 427 kts 134°
2026-05-06 17:30 42.70303 -7.34886 24907 ft 429 kts 134°
2026-05-06 17:30 42.68293 -7.31857 25268 ft 431 kts 134°
2026-05-06 17:30 42.66277 -7.28824 25632 ft 433 kts 134°
2026-05-06 17:30 42.64252 -7.25783 26011 ft 435 kts 134°
2026-05-06 17:31 42.62218 -7.22734 26366 ft 437 kts 134°
2026-05-06 17:31 42.60167 -7.19672 26691 ft 440 kts 134°
2026-05-06 17:31 42.58098 -7.16589 27011 ft 443 kts 134°
2026-05-06 17:31 42.56018 -7.13494 27360 ft 445 kts 134°
2026-05-06 17:32 42.53926 -7.10380 27694 ft 447 kts 134°
2026-05-06 17:32 42.51829 -7.07260 28026 ft 449 kts 134°
2026-05-06 17:32 42.49718 -7.04118 28355 ft 451 kts 134°
2026-05-06 17:32 42.47599 -7.00966 28663 ft 453 kts 134°
2026-05-06 17:33 42.45470 -6.97809 28897 ft 455 kts 134°
2026-05-06 17:33 42.41196 -6.91492 28939 ft 455 kts 134°
2026-05-06 17:34 42.36930 -6.85197 28935 ft 452 kts 134°
2026-05-06 17:34 42.32660 -6.78919 28930 ft 455 kts 134°
2026-05-06 17:35 42.28370 -6.72614 28928 ft 455 kts 134°
2026-05-06 17:35 42.24078 -6.66317 28929 ft 456 kts 134°
2026-05-06 17:36 42.17649 -6.56889 28922 ft 454 kts 134°
2026-05-06 17:36 42.13364 -6.50640 28920 ft 454 kts 135°
2026-05-06 17:37 42.09072 -6.44400 28917 ft 455 kts 134°
2026-05-06 17:37 42.04761 -6.38133 28920 ft 456 kts 134°
2026-05-06 17:38 42.00440 -6.31868 28914 ft 456 kts 135°
2026-05-06 17:38 41.96131 -6.25629 28914 ft 455 kts 135°
2026-05-06 17:39 41.91821 -6.19399 28918 ft 455 kts 135°
2026-05-06 17:39 41.87507 -6.13184 28918 ft 455 kts 135°
2026-05-06 17:40 41.83185 -6.06976 28917 ft 456 kts 135°
2026-05-06 17:40 41.79583 -6.01812 28921 ft 456 kts 135°
2026-05-06 17:41 41.74545 -5.94586 28922 ft 456 kts 135°
2026-05-06 17:41 41.70916 -5.89399 28922 ft 456 kts 135°
2026-05-06 17:42 41.66568 -5.83218 28926 ft 455 kts 135°
2026-05-06 17:42 41.62229 -5.77043 28921 ft 455 kts 135°
2026-05-06 17:43 41.57901 -5.70887 28925 ft 454 kts 135°
2026-05-06 17:43 41.53578 -5.64768 28924 ft 457 kts 135°
2026-05-06 17:44 41.49031 -5.58788 28935 ft 456 kts 139°
2026-05-06 17:44 41.44314 -5.53149 28935 ft 455 kts 140°
2026-05-06 17:45 41.39586 -5.47542 28937 ft 454 kts 140°
2026-05-06 17:45 41.34944 -5.41915 28933 ft 454 kts 139°
2026-05-06 17:46 41.30287 -5.36231 28931 ft 454 kts 139°
2026-05-06 17:46 41.25623 -5.30547 28936 ft 456 kts 140°
2026-05-06 17:47 41.20939 -5.24871 28931 ft 455 kts 140°
2026-05-06 17:47 41.16250 -5.19208 28937 ft 455 kts 140°
2026-05-06 17:48 41.11563 -5.13558 28932 ft 455 kts 140°
2026-05-06 17:48 41.06876 -5.07919 28927 ft 455 kts 140°
2026-05-06 17:49 41.02181 -5.02277 28924 ft 455 kts 140°
2026-05-06 17:49 40.97488 -4.96645 28934 ft 455 kts 140°
2026-05-06 17:50 40.92789 -4.91020 28930 ft 456 kts 140°
2026-05-06 17:50 40.90445 -4.88219 28737 ft 449 kts 140°
2026-05-06 17:50 40.88142 -4.85469 27875 ft 443 kts 140°
2026-05-06 17:51 40.85862 -4.82754 27193 ft 439 kts 140°
2026-05-06 17:51 40.84531 -4.81167 26840 ft 437 kts 140°
2026-05-06 17:51 40.82287 -4.78491 26240 ft 433 kts 140°
2026-05-06 17:51 40.80062 -4.75841 25636 ft 429 kts 141°
2026-05-06 17:52 40.77853 -4.73212 25113 ft 426 kts 141°
2026-05-06 17:52 40.75678 -4.70629 24914 ft 426 kts 141°
2026-05-06 17:52 40.73475 -4.68014 24925 ft 426 kts 141°
2026-05-06 17:52 40.71266 -4.65396 24928 ft 427 kts 141°
2026-05-06 17:53 40.69055 -4.62779 24928 ft 427 kts 141°
2026-05-06 17:53 40.66844 -4.60164 24883 ft 427 kts 141°
2026-05-06 17:53 40.64643 -4.57561 23854 ft 425 kts 141°
2026-05-06 17:53 40.62434 -4.54907 22410 ft 434 kts 137°
2026-05-06 17:54 40.60397 -4.51985 21473 ft 431 kts 134°
2026-05-06 17:54 40.58411 -4.49114 20752 ft 421 kts 135°
2026-05-06 17:54 40.56421 -4.46259 19627 ft 424 kts 135°
2026-05-06 17:54 40.54450 -4.43443 19021 ft 413 kts 135°
2026-05-06 17:55 40.52526 -4.40695 18510 ft 402 kts 135°
2026-05-06 17:55 40.50651 -4.38016 18051 ft 396 kts 135°
2026-05-06 17:55 40.48800 -4.35367 17581 ft 390 kts 134°
2026-05-06 17:55 40.46979 -4.32757 17116 ft 385 kts 134°
2026-05-06 17:56 40.45183 -4.30182 16674 ft 380 kts 134°
2026-05-06 17:56 40.43409 -4.27638 16236 ft 375 kts 134°
2026-05-06 17:56 40.41659 -4.25129 15806 ft 371 kts 134°
2026-05-06 17:56 40.39925 -4.22650 15377 ft 367 kts 134°
2026-05-06 17:57 40.38198 -4.20194 14936 ft 365 kts 134°
2026-05-06 17:57 40.36481 -4.17755 14517 ft 363 kts 134°
2026-05-06 17:57 40.34933 -4.15161 14178 ft 362 kts 121°
2026-05-06 17:57 40.33945 -4.12135 13942 ft 362 kts 110°
2026-05-06 17:58 40.33125 -4.09016 13713 ft 361 kts 110°
2026-05-06 17:58 40.32324 -4.05914 13440 ft 359 kts 109°
2026-05-06 17:58 40.31535 -4.02814 13164 ft 357 kts 109°
2026-05-06 17:58 40.30755 -3.99738 12859 ft 353 kts 109°
2026-05-06 17:59 40.29985 -3.96700 12377 ft 350 kts 109°
2026-05-06 17:59 40.29215 -3.93680 11872 ft 347 kts 109°
2026-05-06 17:59 40.28451 -3.90681 11353 ft 346 kts 109°
2026-05-06 17:59 40.27692 -3.87704 10845 ft 344 kts 109°
2026-05-06 18:00 40.26938 -3.84751 10502 ft 337 kts 109°
2026-05-06 18:00 40.26204 -3.81883 10377 ft 335 kts 109°
2026-05-06 18:00 40.25441 -3.78924 10294 ft 348 kts 109°
2026-05-06 18:00 40.24659 -3.75908 10151 ft 350 kts 109°
2026-05-06 18:01 40.23880 -3.72891 10018 ft 350 kts 109°
2026-05-06 18:01 40.23103 -3.69871 9537 ft 350 kts 109°
2026-05-06 18:01 40.22341 -3.66908 9363 ft 335 kts 109°
2026-05-06 18:01 40.21613 -3.64074 9228 ft 321 kts 109°
2026-05-06 18:02 40.20913 -3.61358 9096 ft 309 kts 109°
2026-05-06 18:02 40.20247 -3.58783 8966 ft 297 kts 109°
2026-05-06 18:02 40.19594 -3.56267 8793 ft 288 kts 109°
2026-05-06 18:02 40.18955 -3.53804 8457 ft 285 kts 109°
2026-05-06 18:03 40.18321 -3.51366 7978 ft 282 kts 109°
2026-05-06 18:03 40.17745 -3.48928 7462 ft 280 kts 99°
2026-05-06 18:03 40.17799 -3.46418 6980 ft 277 kts 75°
2026-05-06 18:03 40.18630 -3.44146 6283 ft 282 kts 51°
2026-05-06 18:04 40.20048 -3.42407 5826 ft 276 kts 41°
2026-05-06 18:04 40.21572 -3.40936 5375 ft 270 kts 29°
2026-05-06 18:04 40.23208 -3.39745 4867 ft 267 kts 30°
2026-05-06 18:04 40.24890 -3.38754 4351 ft 265 kts 15°
2026-05-06 18:05 40.26703 -3.38514 4033 ft 262 kts 356°
2026-05-06 18:05 40.28525 -3.38822 4000 ft 264 kts 353°
2026-05-06 18:05 40.30239 -3.39348 3992 ft 243 kts 336°
2026-05-06 18:05 40.31607 -3.40513 4002 ft 230 kts 323°
2026-05-06 18:06 40.32870 -3.41792 4005 ft 229 kts 322°
2026-05-06 18:06 40.34130 -3.43064 4007 ft 227 kts 323°
2026-05-06 18:06 40.35342 -3.44288 4006 ft 214 kts 322°
2026-05-06 18:06 40.36504 -3.45462 4005 ft 208 kts 322°
2026-05-06 18:07 40.37642 -3.46612 4010 ft 200 kts 322°
2026-05-06 18:07 40.38699 -3.47681 3839 ft 185 kts 322°
2026-05-06 18:07 40.39688 -3.48682 3611 ft 175 kts 322°
2026-05-06 18:07 40.40629 -3.49634 3409 ft 167 kts 322°
2026-05-06 18:08 40.41525 -3.50541 3209 ft 158 kts 322°
2026-05-06 18:08 40.42381 -3.51408 2955 ft 152 kts 322°
2026-05-06 18:08 40.43207 -3.52247 2772 ft 149 kts 321°
2026-05-06 18:08 40.44023 -3.53077 2577 ft 148 kts 322°
2026-05-06 18:09 40.44848 -3.53889 2371 ft 148 kts 322°
2026-05-06 18:09 40.45661 -3.54722 2164 ft 149 kts 322°
2026-05-06 18:09 40.46478 -3.55557 2006 ft 147 kts 322°
2026-05-06 18:09 40.47238 -3.56330 1980 ft 119 kts 322°
2026-05-06 18:10 40.47700 -3.56800 1982 ft 27 kts 318°
2026-05-06 18:10 40.47764 -3.56950 1982 ft 14 kts 300°
2026-05-06 18:10 40.47799 -3.57043 1980 ft 3 kts 287°
2026-05-06 18:10 40.47800 -3.57068 1980 ft 2 kts 271°
2026-05-06 18:11 40.47791 -3.57108 1980 ft 8 kts 239°
2026-05-06 18:11 40.47765 -3.57128 1980 ft 6 kts 207°
2026-05-06 18:11 40.47731 -3.57106 1983 ft 15 kts 146°
2026-05-06 18:11 40.47660 -3.57056 1983 ft 11 kts 204°
2026-05-06 18:12 40.47638 -3.57086 1981 ft 8 kts 246°
2026-05-06 18:12 40.47681 -3.57176 1980 ft 12 kts 324°
2026-05-06 18:12 40.47737 -3.57230 1980 ft 11 kts 321°
2026-05-06 18:12 40.47790 -3.57285 1985 ft 9 kts 321°
2026-05-06 18:13 40.47839 -3.57336 1980 ft 10 kts 322°
2026-05-06 18:13 40.47898 -3.57393 1980 ft 14 kts 323°
2026-05-06 18:13 40.48010 -3.57508 1980 ft 23 kts 322°
2026-05-06 18:13 40.48139 -3.57642 1980 ft 24 kts 322°
2026-05-06 18:14 40.48278 -3.57782 1984 ft 26 kts 322°
2026-05-06 18:14 40.48426 -3.57922 1981 ft 27 kts 327°
2026-05-06 18:14 40.48515 -3.58069 1980 ft 19 kts 274°
2026-05-06 18:14 40.48511 -3.58246 1980 ft 19 kts 268°
2026-05-06 18:15 40.48511 -3.58425 1980 ft 20 kts 271°
2026-05-06 18:15 40.48510 -3.58605 1980 ft 20 kts 271°
2026-05-06 18:15 40.48517 -3.58783 1981 ft 18 kts 296°
2026-05-06 18:15 40.48628 -3.58823 1980 ft 17 kts 360°
2026-05-06 18:16 40.48744 -3.58827 1980 ft 12 kts 336°
2026-05-06 18:16 40.48764 -3.58917 1980 ft 10 kts 269°
2026-05-06 18:16 40.48764 -3.58967 1980 ft 0 kts 270°